Location: Rehoboth Beach
(38.7438°N, 75.1341°W)
Time: 11:16:29
(UTC-05:00)

Cosmos 1452 Rocket - Visible Passes

Search period start: 04 December 2016 00:00
Search period end: 14 December 2016 00:00
Orbit: 768 x 775 km, 74.1° (Epoch: 03 December)

Date Brightness Start Highest point End Pass type
(mag) Time Alt. Az. Time Alt. Az. Time Alt. Az.
04 Dec 4.8 05:46:21 10° N 05:51:18 40° ENE 05:56:14 10° SE visible
05 Dec 5.6 05:10:48 10° N 05:15:05 25° ENE 05:19:22 10° ESE visible
06 Dec 6.1 04:35:41 10° NNE 04:38:45 15° ENE 04:41:49 10° E visible
06 Dec 3.5 06:16:09 10° NNW 06:21:24 67° WSW 06:26:37 10° S visible
07 Dec 3.7 05:40:06 10° NNW 05:45:23 72° ENE 05:50:39 10° SSE visible
07 Dec 5.5 18:35:31 10° SSE 18:36:25 14° SSE 18:36:25 14° SSE visible
08 Dec 4.6 05:04:23 11° N 05:09:17 42° ENE 05:14:16 10° SE visible
08 Dec 5.4 18:01:05 10° SE 18:02:08 13° ESE 18:02:08 13° ESE visible
08 Dec 5.4 19:40:29 10° SSW 19:42:32 24° SW 19:42:32 24° SW visible
09 Dec 5.4 04:29:42 14° NNE 04:33:04 26° ENE 04:37:27 10° ESE visible
09 Dec 4.1 06:10:27 10° NW 06:15:15 36° W 06:20:03 10° SSW visible
09 Dec 4.0 19:04:21 10° SSW 19:08:13 51° S 19:08:13 51° S visible
10 Dec 6.0 03:55:06 14° NE 03:56:45 16° ENE 04:00:00 10° E visible
10 Dec 3.5 05:35:29 18° NNW 05:39:21 63° WSW 05:44:33 10° S visible
10 Dec 3.6 18:28:37 10° S 18:33:38 48° ESE 18:33:52 48° E visible
10 Dec 6.0 20:12:12 10° WSW 20:14:16 17° W 20:14:16 17° W visible
11 Dec 3.6 05:00:58 33° N 05:03:21 76° ENE 05:08:38 10° SSE visible
11 Dec 4.4 17:53:21 10° SSE 17:57:46 28° E 17:59:27 23° ENE visible
11 Dec 5.0 19:35:05 10° SW 19:39:45 32° WNW 19:39:51 32° WNW visible
12 Dec 4.4 04:26:31 42° NE 04:27:16 45° ENE 04:32:18 10° SE visible
12 Dec 4.8 06:06:55 16° WNW 06:09:00 20° W 06:12:47 10° SW visible
12 Dec 5.0 17:18:48 10° SE 17:22:00 16° E 17:24:59 11° ENE visible
12 Dec 4.1 18:58:29 10° SW 19:03:36 54° WNW 19:05:23 37° NNW visible
13 Dec 5.5 03:52:08 25° E 03:52:08 25° E 03:55:31 10° ESE visible
13 Dec 4.1 05:32:33 33° W 05:33:12 34° W 05:37:55 10° SSW visible
13 Dec 3.4 18:22:18 10° SSW 18:27:32 89° ESE 18:30:49 24° NNE visible
13 Dec 6.3 20:08:34 10° WNW 20:10:25 12° NW 20:11:12 11° NW visible
